sat.trackr.live / text

‹ back to catalog

ONEWEB-0420

NORAD 50495 · 2021-132AC

PAYLOAD ACTIVE UNKNOWN

§ Identity

Operator
Country
UK
Launch date
2021-12-27
Launch site
TYMSC
Launch vehicle
Mass (kg)
RCS (m²)

Purposes: comms

External: N2YO · Heavens-Above · Gunter

§ Orbital elements

Epoch: 2026-09-19T22:36:34.365888Z

Period
109.20 min
Inclination
87.9156°
Eccentricity
0.0001879
Mean motion
13.18687054 rev/d
Perigee alt
1,188.3 km
Apogee alt
1,191.2 km
Semi-major
7,567.9 km
B*
-2.9541e-5
RAAN
316.6280°
Arg perigee
91.6027°
Mean anomaly
268.5320°
Rev number
23,406

§ Raw data

ONEWEB-04201 50495U 21132AC  26262.94206442  .00000001  00000+0 -29541-4 0  99972 50495  87.9156 316.6280 0001879  91.6027 268.5320 13.18687054234061

JSON: /api/v1/satellites/50495 · /tle

For live sub-satellite position, see the globe view (requires WebGL).

§ Visibility from observer

Set your observer location to see the next 7 days of passes ≥ 10°. The values pass through the URL so the page stays shareable.

No JS? Fill the form by hand. The geolocation button needs JavaScript.